TimeCDT,TemperatureF,Dew PointF,Humidity,Sea Level PressureIn,VisibilityMPH,Wind Direction,Wind SpeedMPH,Gust SpeedMPH,PrecipitationIn,Events,Conditions,WindDirDegrees,DateUTC
12:54 AM,62.1,57.9,86,29.86,10.0,ENE,5.8,-,N/A,,Overcast,60,2013-09-25 05:54:00
1:54 AM,60.1,55.9,86,29.86,10.0,ENE,3.5,-,N/A,,Clear,60,2013-09-25 06:54:00
2:54 AM,57.9,55.0,90,29.85,10.0,ENE,4.6,-,N/A,,Scattered Clouds,60,2013-09-25 07:54:00
3:54 AM,57.9,54.0,87,29.85,10.0,ENE,4.6,-,N/A,,Mostly Cloudy,60,2013-09-25 08:54:00
4:54 AM,55.9,53.1,90,29.87,10.0,NE,4.6,-,N/A,,Mostly Cloudy,40,2013-09-25 09:54:00
5:54 AM,55.9,52.0,87,29.87,10.0,Calm,Calm,-,N/A,,Scattered Clouds,0,2013-09-25 10:54:00
6:54 AM,54.0,51.1,90,29.89,9.0,NNE,3.5,-,N/A,,Clear,30,2013-09-25 11:54:00
7:54 AM,57.9,53.1,84,29.90,10.0,NE,5.8,-,N/A,,Clear,40,2013-09-25 12:54:00
8:54 AM,63.0,55.0,75,29.91,10.0,East,5.8,-,N/A,,Partly Cloudy,80,2013-09-25 13:54:00
9:54 AM,69.1,57.0,65,29.90,10.0,ENE,5.8,-,N/A,,Clear,70,2013-09-25 14:54:00
10:54 AM,75.0,59.0,57,29.90,10.0,Variable,5.8,-,N/A,,Clear,0,2013-09-25 15:54:00
11:54 AM,79.0,57.9,48,29.89,10.0,East,10.4,-,N/A,,Clear,100,2013-09-25 16:54:00
12:54 PM,79.0,57.9,48,29.88,10.0,East,8.1,-,N/A,,Scattered Clouds,90,2013-09-25 17:54:00
1:54 PM,80.1,55.9,43,29.86,10.0,Variable,3.5,-,N/A,,Partly Cloudy,0,2013-09-25 18:54:00
2:54 PM,82.9,55.9,39,29.86,10.0,NE,6.9,-,N/A,,Mostly Cloudy,50,2013-09-25 19:54:00
3:54 PM,82.0,54.0,38,29.86,10.0,Variable,4.6,-,N/A,,Clear,0,2013-09-25 20:54:00
4:54 PM,82.0,55.0,39,29.86,10.0,NE,5.8,-,N/A,,Clear,40,2013-09-25 21:54:00
5:54 PM,80.1,55.0,42,29.86,10.0,NE,9.2,-,N/A,,Clear,40,2013-09-25 22:54:00
6:54 PM,70.0,57.0,63,29.87,10.0,ENE,4.6,-,N/A,,Clear,60,2013-09-25 23:54:00
7:54 PM,64.9,55.9,73,29.88,10.0,NE,4.6,-,N/A,,Clear,40,2013-09-26 00:54:00
8:54 PM,62.1,55.9,80,29.90,10.0,NE,4.6,-,N/A,,Clear,50,2013-09-26 01:54:00
9:54 PM,63.0,55.9,78,29.91,10.0,ENE,3.5,-,N/A,,Clear,60,2013-09-26 02:54:00
10:54 PM,62.1,55.9,80,29.92,10.0,NE,6.9,-,N/A,,Overcast,50,2013-09-26 03:54:00
11:54 PM,57.9,53.1,84,29.92,10.0,Calm,Calm,-,N/A,,Clear,0,2013-09-26 04:54:00